This is the latest recevied weather packets stored in our database for station/object BARLOW-WX. If no packets are shown the sender has not sent any weather packets the latest 10 day(s).
| Time | Temp. | Humidity | Pressure | Rain* | Wind** | Luminosity | Snow |
|---|---|---|---|---|---|---|---|
| 1777788978 | 2.22° C | 70% | 986.7 hPa | 0 mm | - | - | - |
| 1777788128 | 2.22° C | 70% | 986.7 hPa | 0 mm | - | - | - |
| 1777787178 | 2.78° C | 71% | 987.1 hPa | 0 mm | - | - | - |
| 1777785378 | 1.67° C | 74% | 987.3 hPa | 0 mm | - | - | - |
| 1777784509 | 2.22° C | 74% | 987.3 hPa | 0 mm | - | - | - |
| 1777783577 | 2.22° C | 71% | 987.6 hPa | 0 mm | - | - | - |
| 1777782698 | 2.22° C | 72% | 987.1 hPa | 0 mm | - | - | - |
| 1777781778 | 2.78° C | 72% | 987.1 hPa | 0 mm | - | - | - |
| 1777780911 | 2.78° C | 72% | 987.1 hPa | 0 mm | - | - | - |
| 1777779978 | 2.78° C | 68% | 988.2 hPa | 0 mm | - | - | - |
| 1777779099 | 2.78° C | 70% | 988.3 hPa | 0 mm | - | - | - |
| 1777778178 | 3.33° C | 70% | 988.3 hPa | 0 mm | - | - | - |
| 1777777311 | 3.33° C | 70% | 988.3 hPa | 0 mm | - | - | - |
| 1777776378 | 3.33° C | 61% | 989 hPa | 0 mm | - | - | - |
| 1777775497 | 3.89° C | 66% | 988.7 hPa | 0 mm | - | - | - |
| 1777774578 | 3.89° C | 66% | 988.7 hPa | 0 mm | - | - | - |
| 1777773708 | 3.89° C | 66% | 988.7 hPa | 0 mm | - | - | - |
| 1777772778 | 4.44° C | 62% | 988.2 hPa | 0 mm | - | - | - |
| 1777770978 | 5° C | 62% | 988.2 hPa | 0 mm | - | - | - |
| 1777768292 | 6.11° C | 51% | 989.2 hPa | 0 mm | - | - | - |
| 1777767378 | 6.67° C | 51% | 989.2 hPa | 0 mm | - | - | - |
| 1777766514 | 6.67° C | 51% | 989.2 hPa | 0 mm | - | - | - |
| 1777765580 | 7.22° C | 41% | 989.1 hPa | 0 mm | - | - | - |
| 1777763779 | 7.78° C | 42% | 989.1 hPa | 0 mm | - | - | - |
| 1777761979 | 7.78° C | 44% | 989.4 hPa | 0 mm | - | - | - |
* Rain latest hour (hover to see other rain measurements)
** Current wind speed in m/s (hover to see current wind gust speed)